sat.trackr.live / text

‹ back to catalog

TERRA

NORAD 25994 · 1999-068A

PAYLOAD INACTIVE UNKNOWN

§ Identity

Operator
Country
US
Launch date
1999-12-18
Launch site
AFWTR
Launch vehicle
Mass (kg)
RCS (m²)
12.44

Purposes: earth_obs, science

External: N2YO · Heavens-Above · Gunter

§ Orbital elements

Epoch: 2026-05-25T03:17:16.640160Z

Period
98.56 min
Inclination
97.9470°
Eccentricity
0.0001183
Mean motion
14.61081390 rev/d
Perigee alt
688.8 km
Apogee alt
690.5 km
Semi-major
7,067.8 km
B*
6.8420e-5
RAAN
195.5955°
Arg perigee
336.8502°
Mean anomaly
46.1501°
Rev number
40,624

§ Raw data

TERRA1 25994U 99068A   26145.13699815  .00000292  00000+0  68420-4 0  99972 25994  97.9470 195.5955 0001183 336.8502  46.1501 14.61081390406242

JSON: /api/v1/satellites/25994 · /tle

For live sub-satellite position, see the globe view (requires WebGL).

§ Visibility from observer

Set your observer location to see the next 7 days of passes ≥ 10°. The values pass through the URL so the page stays shareable.

No JS? Fill the form by hand. The geolocation button needs JavaScript.